Regional Weather Roundup
Issued by NWS

Home | Current Version | Previous Version | Text Only | Print | Product List | Glossary On
Versions: 1 2 3 4 5 6 7 8 9 10 11 12 13 14 15 16 17 18 19 20 21 22 23 24 25 26 27 28 29 30 31 32 33 34 35 36 37 38 39 40 41 42 43 44 45 46 47 48 49 50
000
ASUS46 KSEW 030410
RWRWA

WASHINGTON REGIONAL WEATHER ROUNDUP
NATIONAL WEATHER SERVICE SEATTLE WA
900 PM PDT TUE SEP 02 2014

NOTE:"FAIR" INDICATES FEW OR NO CLOUDS BELOW 12,000 FEET WITH NO
SIGNIFICANT WEATHER AND/OR OBSTRUCTIONS TO VISIBILITY.

WAZ505-507>509-030500-
SEATTLE, TACOMA, EVERETT, AND VICINITY

CITY           SKY/WX    TMP DP  RH WIND       PRES   REMARKS
EVERETT        CLOUDY    56  52  86 VRB6      29.86R
BOEING FIELD   CLOUDY    61  52  72 N6        29.87R
RENTON         HVY RAIN  58  56  93 VRB3      29.87R FOG
SEATAC AIRPORT LGT RAIN  60  51  72 N6        29.88R
JBLM-MCCHORD   CLEAR     59  49  68 N10       29.88R
PUYALLUP       NOT AVBL
JBLM-FT LEWIS  CLEAR     59  48  67 S9        29.88R
TACOMA NARROWS CLEAR     58  49  72 SW10G17   29.87R
$$

WAZ001-503-506-510-514-515-030500-
NORTH INTERIOR

CITY           SKY/WX    TMP DP  RH WIND       PRES   REMARKS
BELLINGHAM     RAIN      57  54  89 S3        29.82R FOG
FRIDAY HARBOR  LGT RAIN  56  54  93 SW3       29.85R
EASTSOUND      LGT RAIN  57  55  94 SW5       29.82R
PORT ANGELES   MOCLDY    56  48  74 NW6       29.86R
NAS WHIDBEY    LGT RAIN  57  53  86 W8        29.85R
BURLINGTON     CLOUDY    55  54  94 CALM      29.85R
$$

WAZ020-022-039-040-504-511-512-030500-
SOUTHWEST INTERIOR

CITY           SKY/WX    TMP DP  RH WIND       PRES   REMARKS
SHELTON        CLEAR     56  50  80 SW22      29.84F
OLYMPIA        PTCLDY    58  48  69 W10G18    29.89S
CHEHALIS       LGT RAIN  57  55  94 CALM      29.94R
KELSO          PTCLDY    61  48  63 NW3       29.99R
VANCOUVER      CLEAR     64  50  60 W6        29.95R
SCAPPOOSE, OR  CLEAR     63  51  65 NW7       29.95R
PORTLAND, OR   PTCLDY    65  52  62 W10       29.96R
$$

WAZ021-516-517-030500-
WASHINGTON COAST

CITY           SKY/WX    TMP DP  RH WIND       PRES   REMARKS
FORKS          CLOUDY    56  53  90 W5        29.91R
HOQUIAM        MOCLDY    59  55  87 W15G21    29.93R
ASTORIA, OR    PTCLDY    59  53  80 W13       29.97R
$$

WAZ019-023-024-040-518-519-030500-
CASCADE MOUNTAINS AND COLUMBIA GORGE

CITY           SKY/WX    TMP DP  RH WIND       PRES   REMARKS
STAMPEDE PASS  LGT RAIN  44  40  85 VRB6G24   29.87R
TROUTDALE, OR  PTCLDY    65  51  60 W3        29.94R
THE DALLES, OR PTCLDY    66  47  50 W16G24    29.85R
$$

WAZ026-027-041>044-520-521-030500-
EAST SLOPES

CITY           SKY/WX    TMP DP  RH WIND       PRES   REMARKS
OMAK           CLOUDY    57  52  83 N16       29.69R
WENATCHEE      PTCLDY    65  38  36 W22G30    29.72R
ELLENSBURG     CLEAR     58  43  57 NW12      29.79R
YAKIMA         CLEAR     64  39  39 W26G41    29.74S
$$

WAZ028-034-035-030500-
COLUMBIA BASIN

CITY           SKY/WX    TMP DP  RH WIND       PRES   REMARKS
EPHRATA        MOCLDY    66  40  38 W23G31    29.68R
MOSES LAKE     MOCLDY    66  42  41 W21G28    29.69R
PASCO          MOCLDY    72  49  44 W16       29.72R
HERMISTON, OR  CLEAR     67  49  52 W21G31    29.76R
$$

WAZ036>038-030500-
NORTHEAST WASHINGTON

CITY           SKY/WX    TMP DP  RH WIND       PRES   REMARKS
SPOKANE GEIGER MOCLDY    65  44  46 W10       29.67R
SPOKANE FELTS  MOCLDY    70  42  36 SW9       29.66R
FAIRCHILD AFB  MOCLDY    62  44  51 W10       29.68R
COEURDALENE,ID PTCLDY    64  43  45 S8        29.66S
DEER PARK      CLOUDY    61  50  67 W9        29.66R
$$

WAZ029>033-030500-
SOUTHEAST WASHINGTON

CITY           SKY/WX    TMP DP  RH WIND       PRES   REMARKS
PULLMAN        PTCLDY    65  39  38 SW8       29.73S
LEWISTON, ID   PTCLDY    75  41  29 W18G30    29.67R
WALLA WALLA    PTCLDY    68  47  46 SW23G30   29.77R
PENDLETON, OR  CLEAR     64  46  52 W30G39    29.79R
$$



USA.gov is the U.S. government's official web portal to all federal, state and local government web resources and services.